Flag for United Kingdom Weather past 2 weeks in Bradford, England, United Kingdom

Now
52 °F

Passing clouds.


Feels Like: 47 °F
Forecast: 51 / 65 °F
Wind: 14 mph from West

Location: Leeds And Bradford

Current Time: Aug 31, 2014 at 8:27:45 AM

Latest Report: Aug 31, 2014 at 7:50 AM


Visibility: N/A

Pressure: 29.98 "Hg

Humidity: 88%

Dew point: 48 °F

Location of BradfordLocation

Historic Weather in Bradford — Graph

°F

Bradford temperature yesterday

Maximum temperature yesterday: 63 °F (at 12:50 PM)
Minimum temperature yesterday: 54 °F (at 4:20 AM)
Average temperature yesterday: 57 °F

Past Weeks' High & Low Weather Summary

 TemperatureHumidityPressure
High66 °F (Aug 28, 11:50 AM)100% (Aug 17, 4:50 AM)30.04 "Hg (Aug 17, 4:50 AM)
Low43 °F (Aug 20, 4:50 AM)42% (Aug 24, 4:20 PM)29.59 "Hg (Aug 17, 11:50 AM)
Average54 °F81%29.85 "Hg
* Reported Aug 16 7:20 AM — Aug 31 7:20 AM, Bradford, Weather by CustomWeather, © 2014

Note: Actual official high and low records may vary slightly from our data, if they occured in-between our weather recording intervals... More about our weather records

Advertising

Bradford weather history for previous 24 hours

 ConditionsComfort  
Time TempWeatherWind HumidityBarometerVisibility
7:20 AM
Aug 31
52 °FPassing clouds.14 mph88%29.98 "HgN/A
6:50 AM50 °FPassing clouds.10 mph94%29.98 "HgN/A
6:20 AM50 °FPassing clouds.8 mph94%29.98 "HgN/A
5:50 AM50 °FPassing clouds.6 mph94%29.98 "HgN/A
4:50 AM50 °FClear.16 mph94%29.95 "Hg10 mi
4:20 AM50 °FClear.17 mph94%29.95 "Hg10 mi
3:50 AM50 °FClear.20 mph94%29.95 "Hg10 mi
3:20 AM52 °FClear.18 mph88%29.95 "Hg10 mi
2:50 AM52 °FClear.16 mph88%29.95 "Hg10 mi
1:50 AM52 °FClear.13 mph94%29.95 "Hg10 mi
1:20 AM52 °FClear.14 mph88%29.95 "Hg10 mi
12:50 AM54 °FClear.15 mph82%29.95 "Hg10 mi
12:20 AM54 °FPassing clouds.16 mph82%29.95 "HgN/A
11:50 PM
Aug 30
54 °FPassing clouds.17 mph82%29.95 "HgN/A
10:50 PM55 °FPassing clouds.14 mph88%29.95 "HgN/A
10:20 PM55 °FPassing clouds.12 mph94%29.95 "HgN/A
9:50 PM55 °FPassing clouds.15 mph94%29.95 "HgN/A
9:20 PM55 °FPassing clouds.14 mph94%29.95 "HgN/A
8:50 PM57 °FPassing clouds.18 mph88%29.92 "HgN/A
8:20 PM57 °FPassing clouds.14 mph88%29.92 "HgN/A
7:50 PM57 °FPassing clouds.9 mph82%29.92 "HgN/A
7:20 PM59 °FPassing clouds.8 mph77%29.92 "HgN/A
6:20 PM59 °FPassing clouds.15 mph77%29.92 "HgN/A
5:50 PM59 °FPassing clouds.17 mph77%29.92 "HgN/A
5:20 PM61 °FScattered clouds.15 mph72%29.92 "HgN/A
4:50 PM61 °FScattered clouds.20 mph68%29.92 "HgN/A
4:20 PM61 °FScattered clouds.20 mph63%29.92 "HgN/A
3:50 PM63 °FScattered clouds.21 mph64%29.92 "HgN/A
3:20 PM63 °FScattered clouds.18 mph64%29.92 "HgN/A
2:50 PM63 °FScattered clouds.17 mph64%29.89 "HgN/A
2:20 PM61 °FScattered clouds.17 mph72%29.89 "HgN/A
1:50 PM61 °FScattered clouds.17 mph68%29.89 "HgN/A
1:20 PM61 °FScattered clouds.21 mph72%29.89 "HgN/A
12:50 PM63 °FScattered clouds.21 mph68%29.89 "HgN/A
12:20 PM61 °FScattered clouds.18 mph72%29.89 "HgN/A
11:50 AM61 °FScattered clouds.18 mph72%29.89 "HgN/A
11:20 AM61 °FScattered clouds.18 mph77%29.86 "HgN/A
10:50 AM59 °FScattered clouds.15 mph82%29.86 "HgN/A
10:20 AM57 °FScattered clouds.16 mph88%29.86 "HgN/A
9:50 AM57 °FScattered clouds.13 mph88%29.86 "HgN/A
9:20 AM55 °FScattered clouds.13 mph94%29.83 "HgN/A
8:50 AM55 °FScattered showers. Scattered clouds.16 mph94%29.83 "HgN/A
8:20 AM55 °FSprinkles. Scattered clouds.16 mph94%29.83 "HgN/A
Weather by CustomWeather, © 2014

See weather overviewHow to use our weather pages